Regional Weather Roundup
Issued by NWS Northern Indiana

Home | Current Version | Previous Version | Text Only | Print | Product List | Glossary On
Versions: 1 2 3 4 5 6 7 8 9 10 11 12 13 14 15 16 17 18 19 20 21 22 23 24 25 26 27 28 29 30 31 32 33 34 35 36 37 38 39 40 41 42 43 44 45 46 47 48 49 50
000
ASUS43 KIWX 230000
RWRIWX

KIWX WEATHER ROUNDUP
NATIONAL WEATHER SERVICE NORTHERN INDIANA
700 PM EST SUN JAN 22 2017

NOTE: "FAIR" INDICATES FEW OR NO CLOUDS BELOW 12,000 FEET WITH NO
SIGNIFICANT WEATHER AND/OR OBSTRUCTIONS TO VISIBILITY.

* THESE STATIONS ARE NOT UNDER NWS QUALITY CONTROL. THEY ALSO MAY NOT
  REPORT WEATHER SUCH AS PRECIPITATION OR FOG.

INZ001>027-230100-
NORTHERN INDIANA

CITY           SKY/WX    TMP DP  RH WIND       PRES   REMARKS
GARY*          CLOUDY    41  41 100 N10       29.65R FOG
SOUTH BEND     FOG       41  41 100 N12       29.61S VSB 1/2
6HR MIN TEMP:  41; 6HR MAX TEMP:  43;

GOSHEN         FOG       44  41  89 N13       29.59F VSB 3/4
6HR MIN TEMP:  44; 6HR MAX TEMP:  52;

FORT WAYNE     MOCLDY    51  47  86 N10       29.55R
6HR MIN TEMP:  51; 6HR MAX TEMP:  63;

PERU/GRISSOM   PTCLDY    49  49 100 N9        29.52S
6HR MIN TEMP:  49; 6HR MAX TEMP:  59;


$$
INZ028>050-230100-
CENTRAL INDIANA

CITY           SKY/WX    TMP DP  RH WIND       PRES   REMARKS
LAFAYETTE      CLOUDY    46  46 100 N10       29.55R FOG
6HR MIN TEMP:  46; 6HR MAX TEMP:  53;

KOKOMO*        CLEAR     50  48  93 N13       29.54R
6HR MIN TEMP:  50; 6HR MAX TEMP:  60;

MUNCIE*        PTCLDY    55  51  86 NE12      29.51R
6HR MIN TEMP:  55; 6HR MAX TEMP:  63;

INDIANAPOLIS   MOCLDY    56  51  84 N14       29.49R
6HR MIN TEMP:  56; 6HR MAX TEMP:  61;


$$
MIZ043>046-050>051-056>058-064>065-071>073-077>080-230100-
SOUTHWEST LOWER MICHIGAN

CITY           SKY/WX    TMP DP  RH WIND       PRES   REMARKS
BATTLE CREEK   FOG       41  41 100 NE6       29.63S VSB 1
6HR MIN TEMP:  41; 6HR MAX TEMP:  44;

BENTON HARBOR  CLOUDY    43  41  93 NE3       29.64R FOG
6HR MIN TEMP:  42; 6HR MAX TEMP:  43;

COLDWATER*     FOG       45  45 100 NE7       29.61R VSB 1/2
6HR MIN TEMP:  45; 6HR MAX TEMP:  50;

HILLSDALE*     FOG       46  46 100 NE5       29.60R VSB 1
HOLLAND        CLOUDY    44  41  89 CALM      29.66R
6HR MIN TEMP:  43; 6HR MAX TEMP:  45;

GRAND RAPIDS   CLOUDY    42  40  92 N5        29.65R FOG
6HR MIN TEMP:  39; 6HR MAX TEMP:  43;

KALAMAZOO      FOG       42  40  92 N5        29.63R VSB 1/2
6HR MIN TEMP:  40; 6HR MAX TEMP:  42;

STURGIS*       FOG       42  42 100 NE8       29.60S VSB 1/2
6HR MIN TEMP:  42; 6HR MAX TEMP:  48;

THREE RIVERS*  FOG       41  41 100 N5        29.62S VSB 1/2

$$
OHZ001>008-015>018-024>025-230100-
NORTHWEST OHIO

CITY           SKY/WX    TMP DP  RH WIND       PRES   REMARKS
DEFIANCE       MOCLDY    49  47  93 NE13      29.57R FOG
6HR MIN TEMP:  49; 6HR MAX TEMP:  58;

FINDLAY        CLOUDY    48  44  86 NE12      29.55S
6HR MIN TEMP:  48; 6HR MAX TEMP:  65;

TOLEDO EXPRESS FOG       46  46 100 NE8       29.59S VSB 1/2
6HR MIN TEMP:  46; 6HR MAX TEMP:  62;

TOLEDO METCALF FOG       42  42 100 NE9       29.61R VSB 1/4
6HR MIN TEMP:  42; 6HR MAX TEMP:  56;

LIMA           PTCLDY    53  50  89 NE12      29.54R
6HR MIN TEMP:  53; 6HR MAX TEMP:  64;


$$
AND FOR LAKE MICHIGAN COASTAL AND OPEN LAKE BUOY OBSERVATIONS

STATION/POSITION TEMP    WIND        PRES    VSBY  WAVE
                 AIR SEA DIR/SP/G                  HT/PER
                 (F)     (DEG/KT/KT) (MB)    (MI)  (FT/S)
CALUMET HARBOR    37     340/  8/ 10 1003.6R
MICHIGAN CITY     37     340/ 12/ 12   N/A
BURNS HARBOR      36     350/  8/ 11 1004.4R
SAINT JOSEPH      40      30/  6/ 10 1003.7

$$
&&




USA.gov is the U.S. government's official web portal to all federal, state and local government web resources and services.